Temperature
19 20 21 22 21 19 20 18 19 19 19 20 19 19 20 21 21 22 22 22 22 22 22 22 22 21 21 21 20 20 20 19 19 19 18 18 18 18 17 17 17 16 16 16
20 21 21 22 21 20 21 19 20 20 20 19 20 20 20 21 21 22 22 22 22 22 22 22 21 21 21 20 20 19 19 19 19 18 18 18 17 17 17 16 16 16 16 15
18 20 22 21 21 20 20 20 20 20 20 19 19 19 20 21 21 22 22 22 22 22 22 21 21 21 20 20 19 19 19 19 18 18 18 17 17 16 16 16 16 15 15 15
16 20 20 20 20 20 20 20 19 20 19 19 20 21 21 22 22 22 22 22 22 22 22 21 21 20 20 19 19 19 18 18 18 17 17 17 16 16 15 15 15 15 15 15
15 17 19 20 20 20 20 20 19 19 19 19 20 20 20 21 22 23 23 22 22 22 21 21 20 20 19 19 18 18 18 18 17 17 17 16 16 15 15 15 15 15 14 14
15 18 18 19 20 20 20 20 19 18 18 19 19 19 20 22 22 22 22 22 22 21 21 20 20 19 19 18 18 18 17 17 16 16 16 16 15 15 15 14 14 14 14 14
15 17 17 18 19 20 20 19 20 19 19 19 19 21 23 23 22 22 22 22 21 21 20 20 19 19 18 18 18 17 17 16 16 15 15 15 15 15 14 14 14 14 13 13
14 17 18 18 18 18 18 19 20 20 20 20 21 22 22 22 22 21 21 21 21 20 20 19 19 18 18 18 17 17 16 16 15 15 15 15 14 14 14 14 14 13 13 13
14 15 16 17 18 19 19 19 20 20 21 21 21 21 21 21 21 20 20 20 20 20 19 18 18 18 17 17 16 16 16 15 15 15 15 14 14 14 14 13 13 13 13 13
14 15 16 17 18 19 19 19 20 20 20 20 20 20 20 20 19 19 19 19 19 19 18 18 17 17 17 16 16 16 15 15 15 15 14 14 14 13 13 13 13 13 12 12
14 15 16 17 17 18 19 20 20 20 20 20 20 20 19 19 19 19 19 19 18 18 18 17 17 16 16 16 16 15 15 15 15 14 14 14 13 13 13 13 12 12 12 12
14 15 14 16 17 18 19 20 20 19 19 20 20 20 19 18 18 18 18 18 18 18 17 17 17 16 16 15 15 15 15 15 14 14 14 13 13 13 12 12 12 11 11 11
16 16 16 17 17 18 19 19 19 19 19 19 19 19 19 18 18 18 18 18 17 17 17 17 16 16 15 15 15 15 15 14 14 14 13 13 13 13 12 12 11 11 11 11
16 16 16 17 17 18 18 18 18 18 18 18 18 18 18 18 17 17 17 17 17 16 16 16 16 15 15 14 14 14 14 14 14 14 13 13 13 12 12 12 11 11 11 10
16 17 17 17 17 17 18 18 17 17 17 17 17 17 17 17 17 17 17 16 16 16 16 15 15 15 15 14 14 14 14 14 13 13 13 13 12 12 12 11 11 11 11 10
16 16 16 16 17 17 17 17 17 17 17 17 17 17 17 17 16 16 16 16 16 16 15 15 15 15 14 14 14 14 13 13 13 13 13 12 12 12 11 11 11 11 11 10
16 15 16 16 16 16 16 17 17 16 16 16 17 16 16 16 16 16 15 15 15 15 15 15 15 14 14 14 14 13 13 13 13 13 12 12 12 12 11 11 11 11 10 10
16 16 16 16 16 16 16 16 16 16 16 16 16 16 16 15 15 15 15 15 14 14 14 14 14 14 14 13 13 13 13 13 13 13 12 12 12 12 11 11 11 11 10 10
15 16 15 15 16 16 16 16 16 16 15 15 15 15 15 15 15 14 14 14 14 14 14 14 13 13 13 13 13 13 13 13 12 12 12 12 12 11 11 11 11 10 10 10
15 15 15 15 15 15 15 15 15 15 15 15 15 15 14 14 14 14 14 14 14 13 13 13 13 13 13 13 13 13 13 13 12 12 12 12 11 11 11 11 11 10 10 9
14 14 14 14 14 15 15 14 14 14 14 14 14 14 14 14 14 13 13 13 13 13 13 13 13 13 13 13 13 13 13 12 12 12 12 11 11 11 11 10 10 10 10 9
14 14 14 14 14 14 14 14 14 14 14 14 14 14 14 13 13 13 13 13 13 13 13 13 13 13 13 12 12 12 12 12 12 12 11 11 11 11 10 10 10 10 9 9
13 13 13 13 14 14 14 13 14 14 14 14 14 13 13 13 13 13 13 12 12 12 12 12 12 12 12 12 12 12 12 12 12 11 11 11 11 10 10 10 10 10 9 9
13 13 13 13 13 13 13 13 13 13 13 13 13 13 13 13 12 12 12 12 12 12 12 12 12 12 12 12 12 12 11 11 11 11 11 11 10 10 10 10 9 9 9 9
12 12 12 12 12 12 12 12 12 12 12 12 12 12 12 12 12 12 12 12 12 12 12 11 11 11 11 11 11 11 11 11 11 11 10 10 10 10 10 9 9 9 9 8
11 11 11 12 12 12 12 11 11 11 12 12 12 12 12 12 12 12 11 11 11 11 11 11 11 11 11 11 11 11 11 10 10 10 10 10 9 9 9 9 9 9 8 8
11 11 11 11 11 11 11 11 11 11 11 11 11 11 11 11 11 11 11 11 11 11 11 11 11 11 11 11 11 10 10 10 10 10 9 9 9 9 9 9 8 8 8 8
Wind_Speed
5 4 5 5 7 8 7 10 10 10 9 10 9 7 5 3 3 4 4 5 6 5 5 5 5 5 6 5 5 5 5 4 4 3 4 4 4 4 4 3 3 3 3 2
1 2 4 2 5 8 7 7 7 5 8 8 4 3 4 4 5 5 5 5 5 5 5 5 5 6 6 6 6 6 6 4 3 4 5 4 4 4 4 4 4 4 4 3
3 1 3 2 4 6 5 5 8 9 10 5 5 8 8 8 7 6 6 6 6 6 5 5 6 6 6 7 7 6 6 5 4 5 5 5 5 5 5 4 4 4 4 4
4 4 5 8 4 5 6 4 6 6 5 7 8 6 4 5 6 6 6 6 6 5 5 6 6 7 7 7 7 7 6 5 5 6 6 5 6 6 5 4 5 5 5 5
5 4 4 5 2 3 5 3 3 5 5 4 4 4 1 3 5 7 7 6 5 5 6 7 7 8 9 8 7 7 6 5 5 6 6 6 6 5 5 5 5 5 5 5
5 5 7 7 3 1 4 3 3 4 6 6 7 4 5 5 5 5 5 6 6 7 7 7 7 8 10 8 8 7 6 6 6 6 7 7 6 5 5 6 6 6 6 6
5 4 6 6 4 2 5 7 3 4 6 8 7 6 5 7 6 6 6 7 8 8 7 7 7 9 9 8 7 7 7 7 7 7 7 7 6 5 6 6 7 7 7 6
5 4 6 3 2 5 6 2 1 3 4 5 4 3 6 7 8 8 8 8 9 9 7 7 8 9 9 7 7 8 8 8 8 7 6 6 7 7 6 7 7 6 6 6
7 6 4 2 3 2 2 2 2 2 2 5 5 5 6 6 7 8 9 8 8 9 9 7 7 9 9 7 8 9 9 8 7 7 7 6 6 6 6 5 5 5 5 4
1 2 2 2 1 1 1 2 1 1 2 4 6 7 7 8 8 8 8 8 8 10 9 7 6 7 8 8 8 10 10 8 8 8 7 6 5 4 5 4 4 4 4 4
1 1 2 2 2 1 2 3 4 3 3 4 8 8 8 8 8 8 7 7 8 9 9 8 7 7 7 8 9 10 9 8 8 7 7 7 6 5 3 3 2 4 4 4
4 5 3 3 2 1 1 3 3 4 4 4 6 9 8 7 6 7 8 8 8 8 8 8 8 7 7 7 9 10 8 7 6 6 6 6 6 7 11 7 7 6 6 5
4 3 3 3 1 0 2 3 3 4 5 5 5 7 8 7 6 7 7 8 8 8 8 8 8 7 7 7 8 9 9 8 6 6 6 6 6 6 6 7 10 9 7 7
4 2 1 2 2 1 3 4 5 5 5 5 5 7 7 7 7 7 7 7 7 8 8 9 9 7 7 8 8 9 8 8 8 6 6 6 5 5 5 5 4 4 5 6
3 4 4 2 2 2 3 5 6 5 4 5 5 7 8 8 7 6 6 7 8 8 8 8 8 7 7 8 9 9 8 6 6 6 6 6 5 5 5 5 5 4 3 3
1 2 4 4 4 3 3 5 5 4 4 5 6 5 6 6 6 6 6 7 8 8 7 8 7 7 8 8 8 7 7 9 8 7 6 6 5 5 5 5 5 4 4 3
4 4 5 5 5 4 4 4 5 4 4 5 6 6 7 7 6 5 5 5 5 6 6 7 7 7 8 8 8 7 7 8 10 7 6 6 6 6 5 5 5 4 3 3
5 6 6 6 6 6 4 4 4 4 5 6 7 7 7 6 6 5 5 5 6 5 4 5 7 8 8 8 7 7 7 7 7 7 6 6 6 5 5 5 5 5 3 3
4 4 4 4 4 5 5 4 4 4 5 6 7 6 6 5 5 5 6 6 7 5 3 5 9 8 8 8 8 6 7 7 7 6 6 7 6 5 6 6 5 5 5 4
3 4 5 4 4 5 5 4 4 5 5 6 7 6 5 5 6 6 6 5 3 3 5 7 7 7 7 8 9 7 7 7 7 7 6 6 6 6 6 6 6 6 5 5
3 4 5 5 5 4 4 5 6 5 4 5 6 6 6 5 5 6 6 4 2 4 6 8 6 6 6 7 8 6 7 7 7 6 6 6 6 6 6 6 6 6 5 5
2 4 4 5 5 4 4 4 5 6 5 5 6 6 6 5 5 4 3 3 4 6 5 5 5 7 8 8 6 6 6 6 6 5 5 5 6 6 6 6 6 6 5 5
3 3 4 4 5 4 4 4 5 5 5 5 6 6 6 5 4 5 3 2 4 6 5 5 7 10 10 6 5 5 5 5 5 5 5 5 5 6 6 6 6 5 5 5
4 4 3 4 5 5 4 3 4 4 5 4 4 5 6 5 3 2 4 6 7 8 5 7 10 9 8 5 5 4 4 5 5 4 4 4 4 5 5 5 5 4 5 5
3 3 4 4 4 3 3 4 5 5 5 4 4 4 3 3 4 4 5 6 8 8 6 7 9 8 5 4 4 4 4 4 5 5 5 4 4 4 4 4 4 4 4 5
2 2 2 2 3 3 3 4 4 4 5 5 3 3 4 4 5 5 5 6 7 7 6 5 5 5 4 4 4 4 4 4 5 4 4 4 4 4 3 4 4 4 4 5
2 2 3 3 2 3 3 4 4 4 4 5 4 3 4 5 5 6 6 5 5 5 5 4 4 4 4 4 4 4 4 4 4 4 4 4 4 4 4 4 4 4 5 5
Wind_Direction
207 210 173 173 173 171 170 173 176 215 219 240 236 218 209 200 168 138 133 137 148 151 148 141 136 135 136 133 130 132 131 134 145 145 135 129 126 124 113 105 101 94 88 77
214 210 179 171 183 182 185 176 191 196 240 244 226 175 181 188 181 168 164 161 158 149 143 140 144 143 135 131 131 130 134 139 135 126 116 115 118 115 107 98 88 85 86 83
207 254 114 237 215 189 188 188 175 200 225 202 178 188 193 193 190 183 178 172 166 160 155 150 146 138 138 135 129 130 134 130 115 111 107 105 104 100 101 101 97 92 87 84
137 120 198 241 242 189 178 205 207 207 204 188 189 186 190 185 187 190 179 171 169 157 145 138 130 125 126 125 127 130 128 123 117 115 110 102 99 98 95 97 96 95 88 84
125 158 245 283 227 160 157 248 219 190 187 169 131 91 345 209 191 190 178 165 159 149 140 133 130 131 127 124 124 121 121 119 114 114 110 103 102 101 99 95 89 88 85 82
125 148 210 233 254 200 124 261 253 187 183 163 133 151 231 199 167 158 143 140 136 127 122 125 128 129 127 127 125 126 127 123 116 114 114 112 109 103 95 94 90 86 80 77
140 174 244 249 276 116 155 226 247 190 186 169 179 198 188 151 144 136 131 134 131 128 128 129 130 126 125 126 127 128 123 115 110 108 109 109 104 99 99 99 94 88 81 69
138 156 237 263 135 167 211 236 214 187 178 175 179 140 133 139 137 135 134 134 134 131 126 125 129 129 127 127 124 121 117 112 108 105 107 108 105 99 97 101 99 93 85 71
177 200 240 263 207 218 178 181 209 187 185 166 150 144 137 137 139 142 140 136 132 130 127 127 132 135 133 130 125 120 114 111 108 102 96 101 107 109 103 100 104 104 100 90
146 283 302 313 298 320 197 192 223 185 159 150 149 146 141 142 142 141 137 136 133 132 132 134 130 125 127 130 126 122 119 116 111 107 101 92 89 97 109 112 115 115 113 109
127 273 352 5 9 352 15 74 79 85 114 139 139 138 143 144 145 145 141 140 139 138 138 140 132 126 129 132 130 125 123 119 114 110 110 99 83 66 84 82 128 139 139 138
199 210 184 243 276 313 87 81 94 98 90 97 130 134 136 140 145 143 142 140 136 134 137 136 134 133 134 136 137 134 131 128 125 122 116 113 105 81 56 64 73 88 110 121
206 205 203 243 268 151 135 109 95 97 114 109 110 121 128 132 135 138 143 146 148 147 142 139 139 140 143 143 141 140 140 139 135 134 133 131 126 120 103 64 60 67 83 99
197 160 199 226 209 157 125 107 95 89 94 109 122 121 120 121 128 138 148 151 147 142 142 143 144 149 150 146 141 139 139 142 142 142 142 140 136 132 129 126 110 68 49 77
224 198 193 182 144 124 116 113 108 109 110 114 130 137 135 136 143 146 143 139 137 139 144 145 147 149 146 147 145 144 144 146 142 140 139 137 133 129 128 127 125 118 99 74
208 157 156 153 158 150 131 129 131 139 138 137 136 138 135 135 134 132 136 144 146 153 157 153 153 151 147 148 145 145 148 148 143 141 140 139 139 140 140 140 140 142 141 135
164 182 180 174 176 170 164 156 149 153 151 145 144 135 127 124 123 127 131 138 144 146 152 153 153 150 151 151 149 148 146 149 146 144 150 151 152 154 153 152 154 154 154 153
203 202 191 177 170 166 161 152 150 150 152 148 141 135 136 139 143 142 136 127 122 118 134 149 148 148 150 150 147 146 147 150 154 156 155 155 156 156 156 156 159 157 147 140
178 171 159 160 161 154 156 157 157 149 134 138 141 143 144 143 143 141 138 135 139 144 155 146 144 145 146 149 144 144 147 149 150 150 151 150 152 157 162 165 165 166 163 158
144 144 138 134 133 140 147 147 145 133 133 136 133 133 137 139 135 134 132 133 151 156 149 142 141 141 144 150 146 148 150 151 152 152 151 156 162 166 169 171 172 172 173 174
128 136 141 146 140 138 143 145 138 135 134 135 141 146 146 142 139 139 136 135 127 129 136 136 139 141 142 146 143 147 149 153 156 159 160 164 167 169 172 175 176 177 179 181
123 129 135 139 137 137 140 142 138 136 135 136 137 138 134 132 128 117 112 139 145 138 134 133 134 136 141 138 140 144 148 153 157 160 164 169 173 176 179 179 181 184 185 187
125 127 129 136 139 134 123 128 137 141 144 149 149 149 145 142 142 140 134 133 135 132 128 129 133 132 132 132 139 145 152 158 161 165 169 171 174 178 180 182 185 186 186 188
105 111 117 118 117 119 124 126 125 126 129 131 141 146 141 131 110 100 126 131 130 125 123 131 132 132 131 135 141 148 155 158 158 158 159 162 167 170 172 175 179 181 183 185
98 108 115 120 126 136 136 124 113 109 111 108 105 110 119 129 137 136 127 130 129 122 122 131 133 131 132 135 141 147 155 158 157 155 155 158 164 167 170 173 175 176 181 186
82 102 116 133 144 140 139 132 128 126 122 117 106 102 104 106 115 120 121 126 125 123 125 129 133 132 132 134 139 140 140 142 142 145 151 154 159 164 171 176 177 182 186 188
83 94 102 100 107 131 135 134 135 137 139 136 126 119 119 118 118 120 121 123 123 123 125 126 128 131 133 131 130 131 132 133 137 145 150 154 158 166 176 179 186 190 194 196
Height
1497 1494 1495 1496 1500 1505 1508 1515 1524 1520 1517 1507 1502 1501 1501 1502 1502 1503 1504 1506 1508 1511 1513 1516 1518 1521 1523 1525 1528 1530 1531 1532 1533 1534 1535 1536 1536 1537 1538 1539 1540 1540 1541 1541
1496 1492 1493 1496 1497 1500 1501 1506 1508 1508 1509 1498 1498 1500 1501 1501 1502 1503 1504 1506 1508 1511 1513 1516 1518 1520 1522 1524 1526 1529 1530 1531 1531 1532 1533 1534 1535 1536 1536 1537 1538 1539 1540 1540
1505 1496 1494 1504 1496 1497 1498 1497 1500 1505 1500 1495 1497 1497 1498 1499 1501 1503 1504 1506 1509 1511 1513 1515 1517 1519 1521 1523 1526 1528 1529 1530 1530 1531 1532 1533 1534 1535 1536 1536 1537 1538 1539 1539
1507 1503 1514 1501 1488 1488 1491 1492 1492 1491 1491 1492 1492 1494 1496 1498 1500 1502 1504 1506 1509 1511 1513 1515 1517 1519 1521 1523 1525 1527 1528 1529 1529 1530 1531 1533 1533 1534 1535 1536 1537 1537 1538 1539
1512 1513 1506 1493 1486 1487 1490 1493 1489 1489 1489 1491 1493 1495 1497 1498 1500 1501 1503 1506 1508 1511 1513 1515 1517 1519 1521 1523 1525 1526 1528 1528 1529 1530 1531 1533 1534 1535 1536 1536 1537 1537 1538 1539
1509 1510 1513 1495 1484 1483 1487 1494 1486 1487 1488 1489 1492 1498 1496 1495 1497 1500 1503 1505 1508 1511 1513 1515 1518 1519 1521 1522 1524 1526 1527 1528 1530 1531 1532 1533 1534 1536 1536 1537 1538 1539 1539 1540
1505 1505 1500 1486 1482 1483 1498 1495 1484 1484 1485 1487 1488 1489 1491 1493 1496 1499 1502 1505 1508 1510 1513 1515 1517 1519 1521 1522 1524 1526 1527 1529 1530 1532 1533 1534 1535 1537 1538 1538 1539 1540 1540 1541
1504 1504 1501 1481 1481 1486 1486 1482 1482 1483 1484 1485 1486 1488 1490 1492 1495 1498 1501 1505 1507 1510 1513 1515 1518 1519 1521 1523 1525 1526 1528 1529 1531 1532 1534 1535 1536 1538 1539 1540 1541 1541 1542 1543
1491 1492 1483 1480 1480 1480 1480 1481 1481 1481 1483 1484 1485 1488 1490 1492 1495 1498 1501 1504 1507 1510 1512 1515 1518 1520 1521 1524 1525 1527 1528 1530 1532 1533 1535 1536 1538 1539 1540 1541 1542 1543 1544 1544
1485 1482 1480 1479 1479 1479 1479 1480 1480 1481 1482 1483 1484 1487 1490 1493 1496 1499 1502 1504 1507 1510 1513 1515 1518 1520 1522 1524 1526 1528 1529 1531 1532 1534 1536 1537 1539 1540 1541 1542 1544 1545 1545 1546
1484 1481 1480 1479 1479 1479 1479 1479 1480 1480 1482 1483 1485 1488 1490 1493 1495 1498 1501 1504 1507 1510 1513 1515 1518 1521 1523 1525 1527 1529 1530 1531 1533 1535 1536 1538 1540 1541 1542 1544 1545 1546 1547 1547
1482 1479 1480 1480 1480 1480 1480 1480 1480 1481 1482 1484 1486 1488 1491 1493 1496 1499 1502 1504 1507 1510 1513 1515 1518 1521 1523 1525 1528 1529 1530 1532 1534 1535 1537 1539 1540 1542 1543 1545 1546 1547 1548 1549
1477 1477 1478 1479 1479 1480 1481 1481 1481 1483 1484 1485 1487 1489 1492 1494 1497 1500 1502 1505 1507 1510 1512 1515 1518 1521 1523 1525 1528 1530 1531 1532 1534 1536 1538 1540 1541 1542 1544 1546 1547 1548 1549 1550
1475 1476 1477 1478 1479 1480 1481 1481 1482 1483 1485 1486 1488 1490 1492 1495 1498 1501 1503 1505 1508 1511 1513 1515 1518 1521 1523 1525 1528 1529 1531 1533 1535 1537 1539 1541 1542 1543 1545 1546 1547 1549 1550 1551
1474 1475 1476 1477 1479 1480 1481 1481 1482 1484 1485 1487 1489 1490 1492 1494 1498 1500 1503 1506 1508 1511 1513 1515 1517 1520 1522 1525 1527 1529 1531 1533 1536 1537 1539 1541 1543 1544 1546 1547 1548 1549 1550 1551
1473 1474 1475 1477 1478 1479 1481 1482 1483 1484 1485 1487 1489 1490 1492 1495 1497 1500 1503 1506 1508 1510 1512 1514 1517 1519 1522 1524 1527 1529 1531 1534 1536 1537 1539 1541 1543 1544 1546 1547 1549 1550 1551 1552
1471 1472 1474 1476 1477 1479 1480 1481 1482 1484 1485 1486 1488 1490 1493 1495 1497 1500 1503 1506 1508 1510 1512 1514 1517 1519 1521 1524 1526 1529 1531 1533 1535 1537 1539 1541 1543 1544 1546 1547 1549 1550 1551 1552
1469 1470 1472 1474 1476 1478 1479 1481 1482 1483 1485 1486 1488 1491 1492 1495 1497 1500 1502 1505 1507 1509 1512 1515 1517 1519 1521 1524 1526 1528 1531 1533 1535 1537 1539 1541 1542 1544 1546 1547 1548 1549 1550 1552
1467 1469 1471 1473 1475 1476 1478 1480 1482 1483 1485 1487 1488 1490 1493 1495 1498 1500 1502 1504 1506 1508 1511 1514 1516 1519 1521 1523 1526 1528 1530 1532 1534 1536 1538 1540 1542 1543 1545 1546 1547 1548 1550 1551
1465 1467 1469 1471 1474 1476 1477 1479 1481 1482 1485 1486 1488 1490 1493 1495 1497 1499 1500 1503 1505 1508 1511 1513 1516 1518 1521 1523 1526 1528 1530 1532 1534 1535 1537 1539 1541 1542 1544 1545 1546 1547 1549 1550
1465 1467 1468 1471 1473 1475 1477 1479 1481 1482 1484 1486 1488 1490 1493 1495 1496 1498 1500 1502 1505 1508 1511 1513 1516 1518 1521 1523 1526 1527 1529 1531 1533 1534 1536 1538 1540 1541 1543 1544 1545 1546 1547 1549
1464 1466 1467 1469 1471 1474 1477 1479 1480 1482 1483 1485 1488 1490 1492 1494 1496 1498 1501 1503 1505 1508 1510 1513 1515 1518 1520 1523 1525 1527 1528 1530 1532 1533 1535 1537 1538 1540 1541 1542 1543 1544 1546 1547
1464 1465 1467 1469 1471 1473 1476 1478 1480 1482 1483 1485 1487 1490 1492 1494 1496 1498 1500 1503 1506 1508 1510 1513 1515 1518 1520 1522 1524 1525 1527 1529 1531 1532 1534 1535 1537 1538 1539 1540 1541 1542 1544 1545
1464 1466 1467 1469 1471 1473 1475 1477 1479 1481 1483 1486 1488 1490 1492 1494 1496 1498 1501 1503 1505 1508 1510 1513 1515 1517 1519 1521 1523 1525 1526 1528 1529 1531 1532 1534 1535 1536 1537 1538 1539 1540 1541 1542
1464 1465 1467 1469 1471 1472 1474 1476 1478 1480 1482 1485 1487 1489 1491 1494 1496 1498 1500 1503 1505 1508 1510 1513 1515 1517 1519 1521 1522 1524 1525 1527 1528 1530 1531 1532 1533 1534 1535 1536 1538 1538 1539 1540
1464 1465 1467 1468 1470 1472 1474 1476 1478 1480 1482 1484 1487 1489 1492 1494 1496 1498 1501 1503 1506 1508 1511 1513 1515 1517 1518 1520 1522 1523 1524 1526 1527 1529 1530 1531 1532 1533 1534 1535 1535 1536 1537 1538
1464 1465 1467 1469 1471 1473 1475 1476 1478 1480 1483 1485 1487 1490 1492 1495 1497 1499 1502 1504 1507 1509 1511 1513 1515 1517 1518 1520 1522 1523 1524 1526 1527 1528 1529 1530 1531 1532 1533 1533 1534 1534 1535 1536